Weather History for KOKC - July, 2013

Change the Weather History Date:

Friday, July 26, 2013

  Actual Average Record
Temperature  
Mean Temperature 78 °F 84 °F  
Max Temperature 85 °F 95 °F 107 °F (1998)
Min Temperature 71 °F 73 °F 63 °F (2004)
Cooling Degree Days 13 19  
Month to date cooling degree days 444 467  
Year to date cooling degree days 1023 1107  
Growing Degree Days 28 (Base 50)    
Moisture  
Dew Point 70 °F    
Average Humidity 77    
Maximum Humidity 93    
Minimum Humidity 61    
Precipitation  
Precipitation 3.53 in 0.08 in 3.53 in (2013)
Month to date precipitation 8.62 2.48  
Year to date precipitation 40.47 21.16  
Sea Level Pressure  
Sea Level Pressure 29.97 in    
Wind  
Wind Speed 13 mph (ESE)    
Max Wind Speed 25 mph    
Max Gust Speed 31 mph    
Visibility 7 miles    
Events Fog , Rain , Thunderstorm    
T = Trace of Precipitation, MM = Missing Value Source: NWS Daily Summary

Daily Weather History Graph

Daily Weather History Graph

Search for Another Location

Airport or City:

Trip Planner

Search our weather history database for the weather conditions in past years. The results will help you decide how hot, cold, wet, or windy it might be!

Date:

Astronomy

Jul. 26, 2013 Rise Set
Actual Time 6:34 AM CDT 8:38 PM CDT
Civil Twilight 6:06 AM CDT 9:07 PM CDT
Nautical Twilight 5:31 AM CDT 9:41 PM CDT
Astronomical Twilight 4:54 AM CDT 10:18 PM CDT
Moon 11:06 PM CDT (7/26) 11:00 AM CDT (7/26)
Length of Visible Light 15h 00m
Length of Day
14h 03m
Waning Gibbous, 80% of the Moon is Illuminated
Jul 26
Waning Gibbous
Jul 29
Last Quarter
Aug 6
New
Aug 14
First Quarter
Aug 20
Full

Hourly Weather History & Observations

Time (CDT) Temp. Heat Index Dew Point Humidity Pressure Visibility Wind Dir Wind Speed Gust Speed Precip Events Conditions
12:52 AM 75.9 °F - 72.0 °F 87% 29.98 in 10.0 mi SE 6.9 mph - 0.01 in Rain , Thunderstorm Light Thunderstorms and Rain
1:52 AM 75.9 °F - 71.1 °F 85% 29.94 in 9.0 mi SSE 13.8 mph - 0.05 in Rain , Thunderstorm Light Thunderstorms and Rain
2:48 AM 75.2 °F - 71.6 °F 89% 29.97 in 10.0 mi South 18.4 mph 25.3 mph 0.06 in Rain , Thunderstorm Light Thunderstorms and Rain
2:52 AM 75.0 °F - 71.1 °F 87% 29.92 in 10.0 mi South 19.6 mph 29.9 mph 0.06 in Rain , Thunderstorm Light Thunderstorms and Rain
3:52 AM 73.9 °F - 71.1 °F 91% 29.92 in 7.0 mi SSE 16.1 mph - 0.05 in Rain , Thunderstorm Light Thunderstorms and Rain
4:52 AM 73.9 °F - 71.1 °F 91% 29.89 in 4.0 mi SSE 18.4 mph 31.1 mph 0.21 in Rain , Thunderstorm Thunderstorms and Rain
5:02 AM 73.4 °F - 69.8 °F 88% 30.00 in 3.0 mi WNW 18.4 mph 24.2 mph 0.04 in Rain , Thunderstorm Thunderstorms and Rain
5:04 AM 71.6 °F - 69.8 °F 94% 30.01 in 1.5 mi WNW 17.3 mph 24.2 mph 0.07 in Rain , Thunderstorm Heavy Thunderstorms and Rain
5:06 AM 71.6 °F - 69.8 °F 94% 30.02 in 0.8 mi West 13.8 mph 24.2 mph 0.09 in Rain , Thunderstorm Heavy Thunderstorms and Rain
5:10 AM 71.6 °F - 68.0 °F 88% 30.02 in 0.5 mi West 13.8 mph 28.8 mph 0.33 in Fog , Rain , Thunderstorm Heavy Thunderstorms and Rain
5:17 AM 71.6 °F - 69.8 °F 94% 30.01 in 0.5 mi WSW 6.9 mph 28.8 mph 1.42 in Fog , Rain , Thunderstorm Heavy Thunderstorms and Rain
5:26 AM 71.6 °F - 69.8 °F 94% 30.01 in 1.5 mi SW 4.6 mph - 1.67 in Rain , Thunderstorm Heavy Thunderstorms and Rain
5:34 AM 71.6 °F - 69.8 °F 94% 30.01 in 2.0 mi NW 6.9 mph - 1.74 in Rain , Thunderstorm Heavy Thunderstorms and Rain
5:39 AM 71.6 °F - 69.8 °F 94% 30.00 in 2.5 mi NW 13.8 mph - 1.77 in Rain , Thunderstorm Heavy Thunderstorms and Rain
5:52 AM 71.1 °F - 69.1 °F 93% 29.94 in 1.2 mi WSW 9.2 mph - 1.94 in Rain , Thunderstorm Heavy Thunderstorms and Rain
6:03 AM 71.6 °F - 71.6 °F 100% 29.98 in 2.0 mi SSW 3.5 mph - 0.30 in Rain , Thunderstorm Light Thunderstorms and Rain
6:10 AM 71.6 °F - 71.6 °F 100% 29.97 in 7.0 mi SE 4.6 mph - 0.31 in Rain , Thunderstorm Light Thunderstorms and Rain
6:52 AM 71.1 °F - 71.1 °F 100% 29.96 in 3.0 mi SE 3.5 mph - 0.35 in Rain , Thunderstorm Thunderstorms and Rain
6:56 AM 71.6 °F - 69.8 °F 94% 29.99 in 1.8 mi South 5.8 mph - 0.06 in Rain , Thunderstorm Heavy Thunderstorms and Rain
7:14 AM 71.6 °F - 69.8 °F 94% 30.00 in 2.0 mi South 9.2 mph - 0.37 in Rain Heavy Rain
7:29 AM 71.6 °F - 69.8 °F 94% 29.99 in 1.5 mi SSE 10.4 mph - 0.58 in Rain Heavy Rain
7:40 AM 71.6 °F - 69.8 °F 94% 29.98 in 1.5 mi SE 10.4 mph - 0.78 in Rain Heavy Rain
7:45 AM 71.6 °F - 69.8 °F 94% 29.98 in 3.0 mi SE 13.8 mph 19.6 mph 0.82 in Rain Rain
7:52 AM 71.1 °F - 70.0 °F 96% 29.94 in 5.0 mi SE 13.8 mph - 0.84 in Rain Heavy Rain
8:52 AM 72.0 °F - 69.1 °F 91% 29.94 in 10.0 mi SE 10.4 mph - 0.03 in   Overcast
9:05 AM 71.6 °F - 69.8 °F 94% 29.98 in 10.0 mi SE 11.5 mph - N/A   Overcast
9:52 AM 73.0 °F - 70.0 °F 90% 29.94 in 10.0 mi SE 8.1 mph - 0.00 in Rain Light Rain
10:25 AM 73.4 °F - 69.8 °F 88% 29.98 in 10.0 mi SE 3.5 mph - 0.00 in   Overcast
10:45 AM 73.4 °F - 71.6 °F 94% 29.98 in 7.0 mi Calm Calm - 0.00 in Rain Light Rain
10:52 AM 73.9 °F - 71.1 °F 91% 29.94 in 7.0 mi ESE 3.5 mph - 0.00 in Rain Light Rain
11:28 AM 75.2 °F - 69.8 °F 83% 29.98 in 9.0 mi Calm Calm - 0.00 in   Overcast
11:52 AM 75.0 °F - 70.0 °F 84% 29.94 in 10.0 mi Calm Calm - 0.00 in   Overcast
12:21 PM 77.0 °F - 71.6 °F 83% 29.99 in 10.0 mi Calm Calm - N/A   Overcast
12:52 PM 75.9 °F - 72.0 °F 87% 29.95 in 10.0 mi North 16.1 mph - 0.00 in   Overcast
12:59 PM 77.0 °F - 71.6 °F 83% 29.99 in 10.0 mi North 16.1 mph - N/A   Overcast
1:36 PM 77.0 °F - 71.6 °F 83% 29.99 in 10.0 mi North 16.1 mph - N/A   Overcast
1:52 PM 78.1 °F - 70.0 °F 76% 29.94 in 10.0 mi North 18.4 mph 24.2 mph N/A   Mostly Cloudy
2:04 PM 78.8 °F - 69.8 °F 74% 29.98 in 10.0 mi North 16.1 mph - N/A   Mostly Cloudy
2:08 PM 80.6 °F 84.6 °F 71.6 °F 74% 29.98 in 9.0 mi North 15.0 mph - N/A   Mostly Cloudy
2:52 PM 82.0 °F 85.9 °F 70.0 °F 67% 29.94 in 10.0 mi North 21.9 mph 28.8 mph N/A   Mostly Cloudy
3:52 PM 82.9 °F 85.8 °F 68.0 °F 60% 29.94 in 10.0 mi North 20.7 mph 29.9 mph N/A   Mostly Cloudy
4:52 PM 84.0 °F 87.8 °F 69.1 °F 61% 29.94 in 10.0 mi NNE 23.0 mph 28.8 mph N/A   Mostly Cloudy
5:52 PM 84.0 °F 87.8 °F 69.1 °F 61% 29.95 in 10.0 mi NNE 18.4 mph 24.2 mph N/A   Scattered Clouds
6:52 PM 82.0 °F 84.9 °F 68.0 °F 62% 29.95 in 10.0 mi NNE 15.0 mph 23.0 mph N/A   Scattered Clouds
7:52 PM 82.0 °F 85.9 °F 70.0 °F 67% 29.95 in 10.0 mi NE 16.1 mph - N/A   Scattered Clouds
8:52 PM 78.1 °F - 69.1 °F 74% 29.98 in 10.0 mi NE 13.8 mph - N/A   Scattered Clouds
9:52 PM 77.0 °F - 69.1 °F 76% 30.00 in 10.0 mi NE 10.4 mph - N/A   Scattered Clouds
10:52 PM 75.9 °F - 69.1 °F 79% 30.02 in 10.0 mi NE 6.9 mph - N/A   Clear
11:52 PM 75.0 °F - 69.1 °F 82% 30.04 in 10.0 mi NNE 6.9 mph - N/A   Clear